TITAN 3C TRANSTAGE R/B, 2868

Orbit data source: Space-Track

TITAN 3C TRANSTAGE R/B, 2868 is space debris in GEO originally from a launch on Sat, 01 Jul 1967 UTC launched from the Air Force Eastern Test Range (AFETR). Debris objects in space refer to the collection of defunct objects orbiting the Earth. Examples of debris include non-operational satellites, rocket bodies, and fragments generated from explosions, collisions, or faulty payload assembly.

Loading next visibility...
Identifier
2868, 1967-066G
Orbit
GEO
Country
Flag of USUS
Related business
Manufacturer
Martin Marietta
Mission
Spacecraft
Bus & Motor
TRANSTAGE, Unknown motor
Mass
2,176 kg wet, 2,050 kg dry
Launch date (UTC)
1967-07-01 (59 years ago)
Launch vehicle
Unknown
Launch site
Air Force Eastern Test Range (AFETR)
Object type
Payload
Rocket body
Debris
Shape & HBR
CYL + 2 NOZZLE, 1.1 m
Radar Cross Section
Large (>1 m²)

Expand to show TLE details & history
Last TLE update: 8 hours ago

TLE from 8 hours ago
0 TITAN 3C TRANSTAGE R/B
1 02868U 67066G   26254.89558712 -.00000060  00000-0  00000-0 0  9990
2 02868   2.5510  95.0799 0083369 179.2230 196.8873  1.08907162129289
Epoch: 2026-09-11T21:29Z
TLE epoch observation values (Epoch: 2026-09-11T21:29:38.727Z)
Latitude
0.67579°
Longitude
157.57674°
Altitude
33,844.024 km
Speed
3.136 km/s
True Right ascension
07h 23m 36s
True Declination
0° 40' 30"
Sunlit
Object was in daylight at epoch
Visualization orbit readout
Latitude
Unknown
Longitude
Unknown
Altitude
Unknown
Speed
Unknown
Apparent Right ascension
Unknown
Apparent Declination
Unknown
Sunlit
N/A
Visualization observer readout
Local Sidereal Time
21:45:54
Azimuth
Unknown
Elevation
Unknown
Doppler factor
Unknown
Orbital elements
Apogee altitude
33,861.012 km
Perigee altitude
33,195.619 km
Semi-major axis
39,906.453 km
Eccentricity
0.00834
Inclination
2.551°
RAAN
95.0799°
Arg. of periapsis
179.223°
True anomaly
196.61253°
Mean anomaly
196.8873°
Eccentric anomaly
196.74964°
Mean motion
0.27226 °/min
Orbital period
1,322.28 mins
BSTAR
0
Loading maneuver chart data...
Computing Atmospheric mass density...
Loading historical data...
Loading historical data...
Loading historical data...
Loading historical data...
Loading historical data...
Loading historical data...
Loading historical data...

Documentation

Showing up to 5 results
|